星链-3664 (STARLINK-3664 )

导读 | 星芒AI

STARLINK-3664 是 SpaceX 星链计划中的一颗低轨通信卫星,属于星链第三代组网卫星。该卫星旨在为全球用户提供高速、低延迟的互联网服务,尤其在偏远和网络覆盖不足的地区。它采用先进推进系统和可展开太阳能板,具备自主避障能力。STARLINK-3664 于 2023 年发射,是 SpaceX 扩展全球宽带网络基础设施的重要组成部分。

基本信息
目录编号:
51984
目录名称:
STARLINK-3664
国际标识:
2022-025AE
轨道中心:
EARTH
卫星名称:
星链-3664
卫星全名:
星链-3664 (STARLINK-3664 )
卫星状态:
在轨 (已飞行1383 天)
发射日期:
2022-03-09 UTC
国别 :
美国 (US)
星等 :
--
轨道信息
数据来源 国际轨道数据
星历时间: 2025-12-21T03:46:10+0800
4小时前
查看轨道信息
半长轴: 6917.882km
偏心率: 0.000125
轨道倾角: 53.218°
近地点辐角 88.707°
升交点赤经 33.253°
平近点角 271.407°
近地点: 538.88km
远地点: 540.61km
周期: 95.438分钟
每日圈数: 15.088395
详细信息
固有亮度:
5
最大亮度:
2.5
卫星平台:
Starlink v1.5
覆盖范围:
全球
运营商:
太空探索技术公司
运营商所在国:
美国
制造商(研发单位):
太空探索技术公司
制造商所在国:
美国
使用方式:
暂无
卫星简介
星链(Starlink)计划是由太空探索技术公司(SpaceX)提出的一个巨型低轨卫星互联网星座项目,计划在2019年至2024年间在太空搭建由约1.2万颗卫星组成的“星链”网络,其中1584颗将部署在地球上空550千米处的近地轨道,并从2020年开始工作。该卫星仍在工作。
2D轨道图
3D轨道图
轨道高度分析图
轨道倾角分析图
轨道综合分析图
查看轨道综合分析图